Regional Weather Roundup
Issued by NWS Green Bay, WI

Home | Current Version | Previous Version | Graphics & Text | Print | Product List | Glossary Off
Versions: 1 2 3 4 5 6 7 8 9 10 11 12 13 14 15 16 17 18 19 20 21 22 23 24 25 26 27 28 29 30 31 32 33 34 35 36 37 38 39 40 41 42 43 44 45 46 47 48 49 50

000
ASUS43 KGRB 041211
RWRGRB

NORTH-CENTRAL AND NORTHEAST WISCONSIN REGIONAL WEATHER ROUNDUP
NATIONAL WEATHER SERVICE GREEN BAY WI
600 AM CST SUN DEC 04 2016

WIZ005-009-010>012-018-019-041300-
NORTH CENTRAL WISCONSIN

CITY           SKY/WX    TMP DP  RH WIND       PRES   REMARKS
IRONWOOD       CLOUDY    27  22  81 S5        30.05F
MANITOWISH WTR CLOUDY    26  23  89 S9        30.04F
ARBOR VITAE    CLOUDY    28  23  82 S5        30.05F
EAGLE RIVER    CLOUDY    26  19  75 S6        30.06F
LAND O LAKES   CLOUDY    26  20  77 S6        30.07F
RHINELANDER    CLOUDY    27  22  81 S5        30.07F
PHILLIPS       LGT SNOW  26  24  91 SE5       30.04F
ANTIGO         CLOUDY    26  22  86 S8        30.09F
TOMAHAWK       LGT SNOW  26  23  89 SE3       30.07F
MERRILL        FLURRIES  27  23  84 SE3       30.09F
$$

WIZ013-073-041300-
NORTHEAST WISCONSIN

CITY           SKY/WX    TMP DP  RH WIND       PRES   REMARKS
IRON MOUNTAIN  CLOUDY    28  20  71 S5        30.10F
MARINETTE      CLOUDY    30  23  74 CALM      30.16F
OCONTO         CLOUDY    30  23  74 CALM      30.16F
$$

WIZ017-030-035>037-045-041300-
CENTRAL WISCONSIN

CITY           SKY/WX    TMP DP  RH WIND       PRES   REMARKS
MEDFORD        LGT SNOW  26  24  91 SE6       30.05F
WAUSAU         CLOUDY    28  22  78 SE8       30.08F
MOSINEE        FLURRIES  28  25  86 SE7       30.11F
MARSHFIELD     LGT SNOW  28  25  88 SE6       30.07F FOG
WISC RAPIDS    LGT SNOW  29  27  92 SE5       30.12F FOG
STEVENS POINT  MIX PCPN  26  24  92 SE5       30.12S
WAUPACA        CLOUDY    32  27  81 CALM      30.15S
SHAWANO        CLOUDY    31  25  78 CALM      30.15F
CLINTONVILLE   CLOUDY    30  23  74 SE5       30.14F
WAUTOMA        LGT SNOW  30  27  88 SE6       30.14F FOG
$$

WIZ038-039-048-051-041300-
FOX VALLEY

CITY           SKY/WX    TMP DP  RH WIND       PRES   REMARKS
NWS GREEN BAY  CLOUDY    32  26  78 S7        30.16F
APPLETON       CLOUDY    30  25  80 S5        30.13F
OSHKOSH        CLOUDY    30  25  81 S7        30.15F
FOND DU LAC    FLURRIES  31  24  75 S9        30.15F
$$

WIZ022-050-052-041300-
EAST CENTRAL WISCONSIN

CITY           SKY/WX    TMP DP  RH WIND       PRES   REMARKS
EPHRAIM        CLOUDY    32  25  77 CALM      30.14F
WASHINGTON ISL CLOUDY    33  26  74 SW6       30.15F
STURGEON BAY   CLOUDY    30  25  81 S6        30.16F
MANITOWOC      CLOUDY    31  24  75 CALM      30.17F
SHEBOYGAN      CLOUDY    30  25  81 CALM      30.17F
$$

LMZ563-521-522-541>543-041300-
LAKESHORE

STATION/POSITION TIME  TEMP    WIND        PRES    VSBY  WAVE
                       AIR SEA DIR/SP/G                  HT/PER
                 (UTC) (F)     (DEG/KT/KT) (MB)    (MI)  (FT/S)
SHEBOYGAN LKSHOR 1200   32     240/  4/  5 1022.4F
KEWAUNEE LKSHORE 1142   31     230/  3/  5 1021.2F
ALGOMA MARINA    1051          240/  6/  7   N/A
NORTHPORT PIER   1140   33      CALM  /  2 1021.3F
SISTER BAY LKSHO 1053   33     180/  7/  9   N/A
CHAMBERS ISLAND  1140   33     190/  6/ 11 1021.0F
MENOMINEE LKSHOR 1142   31     210/  5/  6 1020.3F
$$



USA.gov is the U.S. government's official web portal to all federal, state and local government web resources and services.